Regional Weather Roundup
Issued by NWS Kansas City/Pleasant Hill, MO

Home | Current Version | Previous Version | Text Only | Print | Product List | Glossary On
Versions: 1 2 3 4 5 6 7 8 9 10 11 12 13 14 15 16 17 18 19 20 21 22 23 24 25 26 27 28 29 30 31 32 33 34 35 36 37 38 39 40 41 42 43 44 45 46 47 48 49 50
000
ASUS43 KEAX 210204
RWREAX

WEATHER ROUNDUP FOR EASTERN KANSAS AND NORTHWEST MISSOURI
NATIONAL WEATHER SERVICE KANSAS CITY/PLEASANT HILL MO
900 PM CDT SAT SEP 20 2014

KSZ040-057-103>105-MOZ028-029-037-043-210300-
...KANSAS CITY METROPOLITAN AREA...

CITY           SKY/WX    TMP DP  RH WIND       PRES   REMARKS
K.C. INTL      CLEAR     71  69  93 W6        29.97R
K.C. DOWNTOWN  CLEAR     77  69  76 W3        29.95R
LEES SUMMIT    PTCLDY    73  70  90 W3        29.97R
OLATHE - IXD   CLOUDY    74  70  87 W3        29.97R
OLATHE - OJC   MOCLDY    76  70  82 CALM      29.97R
LAWRENCE       PTCLDY    69  66  90 NW7       29.97R FOG

$$

MOZ001>008-011>017-020>025-030>033-038>040-044>046-053-054-210300-
...NORTHERN AND CENTRAL MISSOURI...

CITY           SKY/WX    TMP DP  RH WIND       PRES   REMARKS
ST. JOSEPH     CLEAR     70  68  93 S3        29.96R
MOSBY          MOCLDY    73  72  94 CALM      29.95R
WHITEMAN AFB   CLEAR     72  69  93 SW6       29.95R
CLINTON        PTCLDY    75  72  88 CALM      29.96R
SEDALIA        CLEAR     76  70  82 SW8       29.96R
WARSAW         NOT AVBL
MARSHALL       CLEAR     77  73  88 SW5       29.95R
CHILLICOTHE      N/A     77  71  82 VRB3      29.94R
MOBERLY        PTCLDY    75  68  78 SW10      29.93R
KIRKSVILLE     PTCLDY    74  71  91 SW5       29.92R

$$

MOZ041-047>049-056>058-063>065-088>090-097-210300-
...EASTERN AND SOUTHERN MISSOURI...

CITY           SKY/WX    TMP DP  RH WIND       PRES   REMARKS
ST. LOUIS INTL PTCLDY    79  67  66 SW7       29.93R
SPIRIT OF STL  CLEAR     70  67  90 W3        29.92R
COLUMBIA       CLEAR     72  69  90 SW8       29.95R
JEFFERSON CITY CLEAR     75  69  81 CALM      29.94R
MEXICO         CLEAR    N/A N/A N/A SW7       29.93R
ROLLA          CLEAR     70  66  87 SW6       29.97R
LEBANON        PTCLDY    75  68  78 SW3       30.01R
OSAGE BEACH    PTCLDY    72  68  88 S3        29.97R
SPRINGFIELD    MOCLDY    73  68  84 SW6       30.00R
BRANSON        PTCLDY    73  68  83 CALM      30.03R
NEVADA         CLOUDY    75  70  83 SW5       29.98
JOPLIN         CLOUDY    75  70  84 S7        30.00S
WEST PLAINS    CLEAR     73  68  84 CALM      30.02R

$$

IAZ060-094-KSZ022-034>040-054-083-096-NEZ052-066-093-210300-
...KANSAS...SOUTHEAST NEBRASKA AND IOWA...

CITY           SKY/WX    TMP DP  RH WIND       PRES   REMARKS
TOPEKA         CLEAR     70  69  97 CALM      29.97R
MANHATTAN      CLEAR     71  68  90 VRB3      29.99R
EMPORIA        CLOUDY    71  66  84 CALM      29.98R
CHANUTE        CLOUDY    79  70  74 S6        29.99R
WICHITA        MOCLDY    81  62  52 N5        30.01R THUNDER
OMAHA          PTCLDY    72  59  63 W5        29.95R
LINCOLN        CLEAR     70  59  68 CALM      29.99R
FALLS CITY     PTCLDY    73  69  87 W8        29.97R
LAMONI         CLEAR     69  64  84 W8        29.93R
DES MOINES     CLEAR     72  59  63 W8        29.87R

$$



USA.gov is the U.S. government's official web portal to all federal, state and local government web resources and services.